CPA4690 VHHH-RCTP

Flight info

Callsign CPA4690
Flight time 1h 0m
Altitude 37000
Route DALOL1X/07R DALOL V631 ENVAR M750 TONGA TONGA1A
Aircraft B748/H-VGDW/C

Departure

Time 2026-05-04 12:04
Airport Hong Kong International Airport (VHHH)

Arrival

Time 2026-05-04 13:04
Airport Taiwan Taoyuan International Airport (RCTP)
Time Latitude Longitude Altitude Speed Heading
2026-05-04 11:45 22.30113 113.92233 32 ft 0 kts 341°
2026-05-04 11:53 22.30112 113.92234 32 ft 4 kts 341°
2026-05-04 11:53 22.30086 113.92244 32 ft 1 kts 340°
2026-05-04 11:53 22.30079 113.92246 32 ft 1 kts 337°
2026-05-04 11:55 22.30058 113.92286 32 ft 0 kts 253°
2026-05-04 11:55 22.30057 113.92276 32 ft 1 kts 262°
2026-05-04 11:56 22.30048 113.92242 32 ft 11 kts 241°
2026-05-04 11:56 22.30002 113.92180 32 ft 9 kts 236°
2026-05-04 11:56 22.29974 113.92115 32 ft 9 kts 249°
2026-05-04 11:56 22.29950 113.92046 32 ft 10 kts 250°
2026-05-04 11:57 22.29926 113.91972 32 ft 10 kts 251°
2026-05-04 11:57 22.29902 113.91894 32 ft 11 kts 251°
2026-05-04 11:57 22.29874 113.91808 32 ft 12 kts 258°
2026-05-04 11:57 22.29903 113.91727 32 ft 12 kts 327°
2026-05-04 11:58 22.29978 113.91685 32 ft 11 kts 328°
2026-05-04 11:58 22.30022 113.91616 32 ft 12 kts 275°
2026-05-04 11:58 22.29996 113.91515 32 ft 15 kts 251°
2026-05-04 11:58 22.29959 113.91399 32 ft 15 kts 251°
2026-05-04 11:59 22.29922 113.91285 32 ft 17 kts 251°
2026-05-04 11:59 22.29880 113.91153 32 ft 19 kts 251°
2026-05-04 11:59 22.29834 113.91009 32 ft 21 kts 251°
2026-05-04 11:59 22.29790 113.90873 32 ft 18 kts 251°
2026-05-04 12:00 22.29747 113.90744 32 ft 18 kts 250°
2026-05-04 12:00 22.29708 113.90623 32 ft 15 kts 251°
2026-05-04 12:00 22.29671 113.90509 32 ft 17 kts 251°
2026-05-04 12:00 22.29629 113.90381 32 ft 19 kts 251°
2026-05-04 12:01 22.29582 113.90237 32 ft 21 kts 250°
2026-05-04 12:01 22.29540 113.90105 32 ft 18 kts 251°
2026-05-04 12:02 22.29590 113.89799 32 ft 13 kts 19°
2026-05-04 12:03 22.29664 113.89919 32 ft 36 kts 71°
2026-05-04 12:03 22.29841 113.90488 32 ft 126 kts 70°
2026-05-04 12:03 22.30228 113.91676 59 ft 209 kts 71°
2026-05-04 12:03 22.30767 113.93325 537 ft 240 kts 70°
2026-05-04 12:04 22.31327 113.95061 1125 ft 250 kts 71°
2026-05-04 12:04 22.31893 113.96828 1764 ft 252 kts 70°
2026-05-04 12:04 22.32470 113.98631 2422 ft 256 kts 70°
2026-05-04 12:04 22.33056 114.00466 3083 ft 262 kts 70°
2026-05-04 12:05 22.33651 114.02323 3729 ft 262 kts 70°
2026-05-04 12:05 22.33955 114.04248 4403 ft 265 kts 91°
2026-05-04 12:05 22.33576 114.06213 5100 ft 271 kts 112°
2026-05-04 12:05 22.32544 114.07933 5795 ft 279 kts 133°
2026-05-04 12:06 22.31004 114.09172 6478 ft 286 kts 153°
2026-05-04 12:06 22.29033 114.09830 7201 ft 314 kts 172°
2026-05-04 12:06 22.26809 114.09808 7898 ft 324 kts 189°
2026-05-04 12:06 22.24634 114.09173 8585 ft 327 kts 194°
2026-05-04 12:07 22.22413 114.08787 9267 ft 331 kts 185°
2026-05-04 12:07 22.20082 114.08833 9959 ft 341 kts 169°
2026-05-04 12:07 22.17816 114.09650 10669 ft 347 kts 152°
2026-05-04 12:07 22.15763 114.11040 11370 ft 360 kts 141°
2026-05-04 12:08 22.14022 114.13002 12074 ft 368 kts 124°
2026-05-04 12:08 22.12769 114.15415 12773 ft 371 kts 115°
2026-05-04 12:08 22.11652 114.17898 13443 ft 374 kts 116°
2026-05-04 12:08 22.10390 114.20356 14121 ft 378 kts 120°
2026-05-04 12:09 22.09040 114.22799 14800 ft 381 kts 120°
2026-05-04 12:09 22.07679 114.25235 15474 ft 385 kts 120°
2026-05-04 12:09 22.06270 114.27757 16172 ft 401 kts 120°
2026-05-04 12:09 22.04791 114.30405 16875 ft 422 kts 120°
2026-05-04 12:10 22.03246 114.33170 17572 ft 443 kts 120°
2026-05-04 12:10 22.01621 114.36076 18270 ft 464 kts 120°
2026-05-04 12:10 21.99937 114.39089 18961 ft 485 kts 120°
2026-05-04 12:10 21.98155 114.42274 19661 ft 506 kts 120°
2026-05-04 12:11 21.96297 114.45589 20359 ft 527 kts 120°
2026-05-04 12:11 21.94414 114.48946 21530 ft 536 kts 120°
2026-05-04 12:11 21.92477 114.52399 22551 ft 538 kts 120°
2026-05-04 12:11 21.90568 114.55801 23249 ft 534 kts 120°
2026-05-04 12:12 21.88646 114.59224 23998 ft 532 kts 120°
2026-05-04 12:12 21.86758 114.62583 24737 ft 530 kts 120°
2026-05-04 12:12 21.84844 114.65988 25487 ft 528 kts 120°
2026-05-04 12:12 21.82973 114.69312 26224 ft 525 kts 120°
2026-05-04 12:13 21.81359 114.72839 26959 ft 521 kts 109°
2026-05-04 12:14 21.83461 114.98860 32154 ft 500 kts 83°
2026-05-04 12:15 21.83751 115.02537 32863 ft 497 kts 84°
2026-05-04 12:15 21.84020 115.06207 32989 ft 495 kts 84°
2026-05-04 12:15 21.84537 115.13572 33018 ft 491 kts 85°
2026-05-04 12:16 21.85041 115.20875 33019 ft 489 kts 85°
2026-05-04 12:16 21.85544 115.28179 33018 ft 490 kts 85°
2026-05-04 12:17 21.86041 115.35470 33018 ft 490 kts 85°
2026-05-04 12:17 21.86527 115.42729 33018 ft 490 kts 85°
2026-05-04 12:18 21.87024 115.50059 33018 ft 490 kts 85°
2026-05-04 12:18 21.87509 115.57319 33017 ft 490 kts 85°
2026-05-04 12:19 21.87751 115.60991 33284 ft 487 kts 85°
2026-05-04 12:19 21.87991 115.64613 33784 ft 488 kts 85°
2026-05-04 12:19 21.88229 115.68233 34280 ft 487 kts 85°
2026-05-04 12:19 21.88469 115.71891 34780 ft 486 kts 85°
2026-05-04 12:20 21.88705 115.75495 35277 ft 489 kts 85°
2026-05-04 12:20 21.89381 115.85880 36708 ft 496 kts 85°
2026-05-04 12:20 21.89621 115.89604 37042 ft 504 kts 85°
2026-05-04 12:20 21.89860 115.93330 37051 ft 486 kts 85°
2026-05-04 12:21 21.90319 116.00505 37075 ft 484 kts 85°
2026-05-04 12:21 21.90780 116.07753 37073 ft 486 kts 85°
2026-05-04 12:22 21.91011 116.11401 37085 ft 497 kts 85°
2026-05-04 12:22 21.91247 116.15142 37074 ft 499 kts 85°
2026-05-04 12:22 21.91714 116.22607 37072 ft 498 kts 85°
2026-05-04 12:23 21.92174 116.29996 37072 ft 498 kts 85°
2026-05-04 12:23 21.93084 116.44780 37073 ft 498 kts 85°
2026-05-04 12:24 21.93537 116.52238 37072 ft 498 kts 85°
2026-05-04 12:24 21.93984 116.59634 37071 ft 498 kts 85°
2026-05-04 12:25 21.94428 116.67045 37073 ft 498 kts 86°
2026-05-04 12:25 21.94871 116.74477 37074 ft 498 kts 86°
2026-05-04 12:26 21.95315 116.81902 37074 ft 498 kts 86°
2026-05-04 12:26 21.95741 116.89337 37074 ft 498 kts 86°
2026-05-04 12:27 21.96176 116.96812 37085 ft 507 kts 86°
2026-05-04 12:27 21.96618 117.04469 37077 ft 518 kts 87°
2026-05-04 12:28 21.97062 117.12223 37075 ft 523 kts 88°
2026-05-04 12:28 21.98883 117.45388 37074 ft 524 kts 88°
2026-05-04 12:29 21.99491 117.49249 37080 ft 527 kts 76°
2026-05-04 12:29 22.00784 117.52926 37076 ft 530 kts 65°
2026-05-04 12:29 22.04650 117.59740 37077 ft 533 kts 59°
2026-05-04 12:30 22.08566 117.66546 37076 ft 533 kts 60°
2026-05-04 12:30 22.12430 117.73350 37073 ft 533 kts 60°
2026-05-04 12:31 22.16268 117.80128 37073 ft 533 kts 60°
2026-05-04 12:31 22.20116 117.86934 37071 ft 533 kts 60°
2026-05-04 12:32 22.25890 117.97162 37060 ft 533 kts 60°
2026-05-04 12:33 22.36987 118.16406 37049 ft 534 kts 59°
2026-05-04 12:33 22.40949 118.23171 37046 ft 533 kts 60°
2026-05-04 12:34 22.44805 118.29951 37046 ft 533 kts 60°
2026-05-04 12:34 22.48684 118.36798 37046 ft 533 kts 60°
2026-05-04 12:35 22.52524 118.43588 37046 ft 533 kts 60°
2026-05-04 12:35 22.56378 118.50409 37046 ft 533 kts 60°
2026-05-04 12:36 22.60251 118.57213 37046 ft 533 kts 60°
2026-05-04 12:36 22.64136 118.64036 37046 ft 533 kts 60°
2026-05-04 12:37 22.68028 118.70878 37048 ft 533 kts 60°
2026-05-04 12:37 22.71890 118.77676 37048 ft 533 kts 60°
2026-05-04 12:38 22.75770 118.84516 37048 ft 533 kts 60°
2026-05-04 12:38 22.79628 118.91327 37048 ft 533 kts 60°
2026-05-04 12:39 22.83499 118.98170 37048 ft 533 kts 60°
2026-05-04 12:39 22.87366 119.05012 37048 ft 533 kts 60°
2026-05-04 12:40 22.91215 119.11832 37048 ft 534 kts 60°
2026-05-04 12:40 22.95076 119.18684 37048 ft 535 kts 60°
2026-05-04 12:41 22.98972 119.25607 37049 ft 538 kts 60°
2026-05-04 12:41 23.11753 119.48386 37075 ft 541 kts 60°
2026-05-04 12:42 23.18316 119.58928 37050 ft 544 kts 45°
2026-05-04 12:42 23.21210 119.61506 37049 ft 546 kts 34°
2026-05-04 12:42 23.24533 119.63586 37057 ft 548 kts 28°
2026-05-04 12:43 23.31157 119.67571 37046 ft 548 kts 31°
2026-05-04 12:43 23.37730 119.71687 37046 ft 548 kts 31°
2026-05-04 12:44 23.44346 119.75857 37047 ft 548 kts 31°
2026-05-04 12:44 23.50791 119.80094 36930 ft 536 kts 33°
2026-05-04 12:44 23.53898 119.82223 36361 ft 524 kts 33°
2026-05-04 12:45 23.56959 119.84328 35552 ft 512 kts 33°
2026-05-04 12:45 23.59928 119.86373 34787 ft 497 kts 33°
2026-05-04 12:45 23.62763 119.88325 34034 ft 483 kts 33°
2026-05-04 12:45 23.65572 119.90260 33268 ft 470 kts 33°
2026-05-04 12:46 23.68267 119.92117 32516 ft 458 kts 33°
2026-05-04 12:46 23.70919 119.93948 31757 ft 447 kts 33°
2026-05-04 12:46 23.73497 119.95727 31003 ft 436 kts 34°
2026-05-04 12:46 23.76036 119.97480 30244 ft 427 kts 34°
2026-05-04 12:47 23.78473 119.99164 29501 ft 418 kts 34°
2026-05-04 12:47 23.80902 120.00843 28750 ft 418 kts 34°
2026-05-04 12:47 23.83428 120.02593 28040 ft 439 kts 34°
2026-05-04 12:47 23.86017 120.04384 27289 ft 437 kts 34°
2026-05-04 12:48 23.88549 120.06136 26539 ft 429 kts 34°
2026-05-04 12:48 23.91035 120.07857 25787 ft 421 kts 34°
2026-05-04 12:48 23.93446 120.09561 25127 ft 411 kts 39°
2026-05-04 12:48 23.95441 120.11724 25085 ft 406 kts 54°
2026-05-04 12:49 23.97050 120.14271 25060 ft 409 kts 53°
2026-05-04 12:49 23.99085 120.16457 25066 ft 414 kts 38°
2026-05-04 12:49 24.01568 120.18049 25061 ft 417 kts 24°
2026-05-04 12:49 24.04302 120.19170 25054 ft 418 kts 20°
2026-05-04 12:50 24.07039 120.20225 25049 ft 418 kts 21°
2026-05-04 12:50 24.09741 120.21335 25044 ft 416 kts 27°
2026-05-04 12:50 24.12270 120.22810 25051 ft 416 kts 31°
2026-05-04 12:50 24.14742 120.24416 24827 ft 417 kts 33°
2026-05-04 12:51 24.17216 120.26086 24301 ft 412 kts 33°
2026-05-04 12:51 24.19609 120.27727 23798 ft 407 kts 33°
2026-05-04 12:51 24.21968 120.29359 23297 ft 403 kts 34°
2026-05-04 12:51 24.24322 120.30994 22793 ft 399 kts 34°
2026-05-04 12:52 24.26638 120.32605 22293 ft 396 kts 34°
2026-05-04 12:52 24.28967 120.34229 21786 ft 393 kts 34°
2026-05-04 12:52 24.31272 120.35836 20799 ft 397 kts 34°
2026-05-04 12:52 24.41062 120.42680 15683 ft 397 kts 34°
2026-05-04 12:53 24.43364 120.44289 14437 ft 395 kts 33°
2026-05-04 12:53 24.45632 120.45876 13198 ft 392 kts 33°
2026-05-04 12:53 24.47897 120.47461 11950 ft 388 kts 33°
2026-05-04 12:53 24.50145 120.49035 11121 ft 371 kts 33°
2026-05-04 12:54 24.52204 120.50474 11037 ft 338 kts 33°
2026-05-04 12:54 24.59822 120.55810 10975 ft 307 kts 34°
2026-05-04 12:54 24.61829 120.57219 10713 ft 286 kts 34°
2026-05-04 12:54 24.67366 120.61255 9052 ft 269 kts 40°
2026-05-04 12:55 24.71648 120.65224 9031 ft 246 kts 44°
2026-05-04 12:55 24.72871 120.66448 9038 ft 233 kts 44°
2026-05-04 12:55 24.77231 120.70792 9064 ft 236 kts 44°
2026-05-04 12:55 24.82430 120.75939 9070 ft 237 kts 43°
2026-05-04 12:56 24.88879 120.82245 9123 ft 237 kts 44°
2026-05-04 12:56 24.90113 120.83481 8884 ft 241 kts 47°
2026-05-04 12:56 24.91025 120.84973 8389 ft 235 kts 69°
2026-05-04 12:56 24.91465 120.86687 7897 ft 230 kts 83°
2026-05-04 12:57 24.91601 120.88409 7407 ft 228 kts 89°
2026-05-04 12:57 24.91612 120.90147 6906 ft 226 kts 91°
2026-05-04 12:57 24.91572 120.91867 6407 ft 224 kts 92°
2026-05-04 12:57 24.91511 120.93582 5684 ft 234 kts 92°
2026-05-04 12:58 24.91298 120.98534 3338 ft 246 kts 92°
2026-05-04 12:58 24.91511 121.00313 3147 ft 223 kts 71°
2026-05-04 12:58 24.92130 121.01781 3109 ft 200 kts 59°
2026-05-04 12:58 24.92891 121.03033 3122 ft 193 kts 55°
2026-05-04 12:59 24.93712 121.04218 3129 ft 196 kts 53°
2026-05-04 12:59 24.94563 121.05385 3125 ft 195 kts 52°
2026-05-04 12:59 24.95413 121.06544 3137 ft 194 kts 52°
2026-05-04 12:59 24.96274 121.07642 3144 ft 186 kts 50°
2026-05-04 13:00 24.97125 121.08714 3128 ft 185 kts 50°
2026-05-04 13:00 24.97975 121.09789 3076 ft 188 kts 50°
2026-05-04 13:00 24.98826 121.10866 2748 ft 185 kts 50°
2026-05-04 13:00 24.99666 121.11925 2465 ft 183 kts 50°
2026-05-04 13:01 25.00498 121.12978 2198 ft 182 kts 50°
2026-05-04 13:01 25.01327 121.14027 1942 ft 178 kts 50°
2026-05-04 13:01 25.02089 121.14990 1698 ft 158 kts 50°
2026-05-04 13:01 25.02766 121.15847 1461 ft 139 kts 51°
2026-05-04 13:02 25.03397 121.16650 1287 ft 137 kts 51°
2026-05-04 13:02 25.04019 121.17443 1117 ft 139 kts 51°
2026-05-04 13:02 25.04661 121.18259 936 ft 139 kts 51°
2026-05-04 13:02 25.05288 121.19056 753 ft 138 kts 51°
2026-05-04 13:03 25.05919 121.19857 566 ft 138 kts 51°
2026-05-04 13:03 25.06547 121.20653 382 ft 138 kts 51°
2026-05-04 13:03 25.07175 121.21448 193 ft 138 kts 51°
2026-05-04 13:03 25.07807 121.22247 120 ft 139 kts 51°
2026-05-04 13:04 25.08392 121.22991 119 ft 110 kts 50°
2026-05-04 13:04 25.08730 121.23422 118 ft 56 kts 51°
2026-05-04 13:04 25.08920 121.23710 118 ft 29 kts 68°
2026-05-04 13:04 25.08968 121.23900 118 ft 22 kts 79°
2026-05-04 13:05 25.08996 121.24051 118 ft 17 kts 73°
2026-05-04 13:05 25.09004 121.24129 118 ft 5 kts 116°
2026-05-04 13:05 25.08979 121.24165 118 ft 5 kts 134°
2026-05-04 13:05 25.08958 121.24187 118 ft 3 kts 138°
2026-05-04 13:06 25.08950 121.24195 118 ft 0 kts 139°
2026-05-04 13:06 25.08941 121.24204 118 ft 1 kts 139°
2026-05-04 13:06 25.08938 121.24206 118 ft 0 kts 139°